IGO522 VAAH-VAPO

Flight info

Callsign IGO522
Flight time N/A
Altitude 33000
Route QQZ1A QQZ W77 SG J69 SRD J40 PPN
Aircraft A21N/M-SDE2E3FGHIRWXY/LB1

Departure

Time 2026-04-24 04:30
Airport Sardar Vallabh Patel International Airport (VAAH)

Arrival

Time N/A
Airport Pune International Airport (VAPO)
Time Latitude Longitude Altitude Speed Heading
2026-04-24 03:55 23.07182 72.61842 196 ft 0 kts 45°
2026-04-24 04:20 23.07182 72.61841 196 ft 1 kts 45°
2026-04-24 04:20 23.07176 72.61834 195 ft 2 kts 45°
2026-04-24 04:20 23.07165 72.61823 208 ft 2 kts 46°
2026-04-24 04:20 23.07155 72.61810 210 ft 2 kts 71°
2026-04-24 04:21 23.07151 72.61794 204 ft 2 kts 95°
2026-04-24 04:21 23.07154 72.61775 210 ft 2 kts 108°
2026-04-24 04:21 23.07156 72.61767 204 ft 0 kts 118°
2026-04-24 04:23 23.07147 72.61783 199 ft 9 kts 122°
2026-04-24 04:23 23.07072 72.61872 200 ft 23 kts 136°
2026-04-24 04:23 23.06969 72.61983 206 ft 21 kts 133°
2026-04-24 04:24 23.06891 72.62072 210 ft 0 kts 130°
2026-04-24 04:24 23.06888 72.62088 203 ft 6 kts 98°
2026-04-24 04:24 23.06918 72.62142 199 ft 1 kts 76°
2026-04-24 04:24 23.06884 72.62171 193 ft 15 kts 138°
2026-04-24 04:25 23.06859 72.62271 203 ft 16 kts 55°
2026-04-24 04:25 23.06969 72.62387 199 ft 29 kts 46°
2026-04-24 04:25 23.07126 72.62558 192 ft 14 kts 47°
2026-04-24 04:25 23.07164 72.62603 198 ft 14 kts 47°
2026-04-24 04:26 23.07263 72.62715 199 ft 27 kts 42°
2026-04-24 04:26 23.07411 72.62861 192 ft 30 kts 43°
2026-04-24 04:26 23.07568 72.63024 197 ft 31 kts 45°
2026-04-24 04:26 23.07651 72.63113 203 ft 14 kts 44°
2026-04-24 04:27 23.07737 72.63203 207 ft 20 kts 44°
2026-04-24 04:27 23.07857 72.63324 201 ft 24 kts 43°
2026-04-24 04:27 23.07937 72.63457 194 ft 24 kts 55°
2026-04-24 04:27 23.08070 72.63605 192 ft 29 kts 44°
2026-04-24 04:28 23.08188 72.63727 197 ft 15 kts 43°
2026-04-24 04:28 23.08278 72.63819 194 ft 20 kts 43°
2026-04-24 04:28 23.08388 72.63937 198 ft 24 kts 49°
2026-04-24 04:28 23.08515 72.64080 196 ft 27 kts 45°
2026-04-24 04:29 23.08601 72.64182 197 ft 15 kts 64°
2026-04-24 04:29 23.08546 72.64279 199 ft 18 kts 149°
2026-04-24 04:29 23.08481 72.64259 204 ft 0 kts 223°
2026-04-24 04:30 23.08395 72.64171 202 ft 58 kts 223°
2026-04-24 04:30 23.07860 72.63594 201 ft 152 kts 225°
2026-04-24 04:30 23.06991 72.62643 653 ft 187 kts 225°
2026-04-24 04:30 23.05961 72.61642 1436 ft 208 kts 212°
2026-04-24 04:31 23.04573 72.61223 2475 ft 218 kts 188°
2026-04-24 04:31 23.02946 72.61277 2812 ft 252 kts 168°
2026-04-24 04:31 23.01235 72.62057 3021 ft 272 kts 148°
2026-04-24 04:31 22.99753 72.63291 3493 ft 274 kts 139°
2026-04-24 04:32 22.98358 72.64734 4110 ft 277 kts 135°
2026-04-24 04:32 22.97002 72.66236 4731 ft 280 kts 135°
2026-04-24 04:32 22.95640 72.67761 5356 ft 280 kts 135°
2026-04-24 04:32 22.94265 72.69279 5975 ft 282 kts 135°
2026-04-24 04:33 22.92866 72.70782 6590 ft 286 kts 136°
2026-04-24 04:33 22.91435 72.72302 7192 ft 288 kts 136°
2026-04-24 04:33 22.89995 72.73828 7807 ft 290 kts 136°
2026-04-24 04:33 22.88543 72.75365 8434 ft 293 kts 136°
2026-04-24 04:34 22.87069 72.76881 9065 ft 295 kts 141°
2026-04-24 04:34 22.85443 72.78279 9726 ft 298 kts 143°
2026-04-24 04:34 22.83791 72.79666 10321 ft 301 kts 143°
2026-04-24 04:34 22.82124 72.81067 10945 ft 304 kts 143°
2026-04-24 04:35 22.80474 72.82462 11545 ft 305 kts 142°
2026-04-24 04:35 22.78781 72.83900 12180 ft 315 kts 142°
2026-04-24 04:35 22.76995 72.85421 12828 ft 336 kts 142°
2026-04-24 04:35 22.75102 72.87034 13509 ft 352 kts 142°
2026-04-24 04:36 22.73181 72.88670 14107 ft 357 kts 142°
2026-04-24 04:36 22.71209 72.90351 14713 ft 361 kts 142°
2026-04-24 04:36 22.69221 72.92046 15326 ft 364 kts 141°
2026-04-24 04:36 22.67225 72.93746 15956 ft 368 kts 141°
2026-04-24 04:37 22.65219 72.95454 16578 ft 371 kts 141°
2026-04-24 04:37 22.63172 72.97198 17219 ft 375 kts 141°
2026-04-24 04:37 22.61108 72.98956 17890 ft 378 kts 141°
2026-04-24 04:37 22.59032 73.00724 18509 ft 381 kts 141°
2026-04-24 04:38 22.56954 73.02494 19095 ft 385 kts 141°
2026-04-24 04:38 22.54838 73.04296 19693 ft 389 kts 141°
2026-04-24 04:38 22.52690 73.06126 20290 ft 392 kts 141°
2026-04-24 04:38 22.50554 73.07943 20770 ft 395 kts 141°
2026-04-24 04:39 22.48380 73.09790 21257 ft 398 kts 141°
2026-04-24 04:39 22.46191 73.11649 21760 ft 401 kts 142°
2026-04-24 04:39 22.43989 73.13517 22255 ft 404 kts 142°
2026-04-24 04:39 22.41756 73.15412 22778 ft 407 kts 142°
2026-04-24 04:40 22.39523 73.17304 23212 ft 409 kts 142°
2026-04-24 04:40 22.37298 73.19188 23578 ft 412 kts 142°
2026-04-24 04:40 22.34992 73.21043 23910 ft 414 kts 147°
2026-04-24 04:40 22.32475 73.22569 24246 ft 415 kts 156°
2026-04-24 04:41 22.29770 73.23670 24580 ft 417 kts 165°
2026-04-24 04:41 22.26943 73.24436 24924 ft 419 kts 167°
2026-04-24 04:41 22.24086 73.25169 25279 ft 420 kts 167°
2026-04-24 04:41 22.21231 73.25922 25637 ft 422 kts 166°
2026-04-24 04:42 22.18410 73.26694 25996 ft 424 kts 165°
2026-04-24 04:42 22.15540 73.27500 26363 ft 426 kts 165°
2026-04-24 04:42 22.12661 73.28321 26735 ft 428 kts 165°
2026-04-24 04:42 22.09798 73.29140 27111 ft 429 kts 165°
2026-04-24 04:43 22.06901 73.29967 27488 ft 431 kts 165°
2026-04-24 04:43 22.03988 73.30797 27881 ft 433 kts 165°
2026-04-24 04:43 22.01051 73.31629 28273 ft 435 kts 165°
2026-04-24 04:43 21.98125 73.32457 28667 ft 438 kts 165°
2026-04-24 04:44 21.95150 73.33297 29067 ft 440 kts 165°
2026-04-24 04:44 21.92203 73.34127 29472 ft 442 kts 165°
2026-04-24 04:44 21.89215 73.34966 29881 ft 444 kts 165°
2026-04-24 04:44 21.86219 73.35807 30241 ft 447 kts 165°
2026-04-24 04:45 21.83191 73.36660 30600 ft 449 kts 165°
2026-04-24 04:45 21.80151 73.37519 30959 ft 452 kts 165°
2026-04-24 04:45 21.77108 73.38379 31324 ft 451 kts 166°
2026-04-24 04:45 21.74073 73.39234 31685 ft 450 kts 166°
2026-04-24 04:46 21.71033 73.40089 32060 ft 450 kts 166°
2026-04-24 04:46 21.68003 73.40939 32438 ft 448 kts 166°
2026-04-24 04:46 21.65028 73.41773 32804 ft 447 kts 166°
2026-04-24 04:46 21.61970 73.42629 32910 ft 447 kts 166°
2026-04-24 04:47 21.55994 73.44293 32909 ft 446 kts 167°
2026-04-24 04:47 21.49893 73.45985 32907 ft 459 kts 167°
2026-04-24 04:48 21.43740 73.47692 32908 ft 458 kts 167°
2026-04-24 04:48 21.37563 73.49408 32906 ft 458 kts 167°
2026-04-24 04:49 21.31371 73.51129 32916 ft 459 kts 167°
2026-04-24 04:49 21.25219 73.52837 32922 ft 459 kts 167°
2026-04-24 04:50 21.19034 73.54553 32920 ft 459 kts 167°
2026-04-24 04:50 21.12849 73.56372 32919 ft 460 kts 163°
2026-04-24 04:51 21.06807 73.58560 32928 ft 460 kts 162°
2026-04-24 04:51 21.00750 73.60804 32927 ft 460 kts 162°
2026-04-24 04:52 20.94685 73.63046 32937 ft 460 kts 162°
2026-04-24 04:52 20.88654 73.65265 32935 ft 460 kts 162°
2026-04-24 04:53 20.82590 73.67488 32950 ft 459 kts 162°
2026-04-24 04:53 20.76535 73.69704 32954 ft 459 kts 162°
2026-04-24 04:54 20.70517 73.71903 32958 ft 459 kts 163°
2026-04-24 04:54 20.64469 73.74110 32961 ft 458 kts 163°
2026-04-24 04:55 20.58458 73.76302 32961 ft 457 kts 163°
2026-04-24 04:55 20.52413 73.78506 32970 ft 457 kts 163°
2026-04-24 04:56 20.46408 73.80692 32974 ft 456 kts 163°
2026-04-24 04:56 20.40420 73.82870 32974 ft 455 kts 163°
2026-04-24 04:57 20.34446 73.85040 32981 ft 455 kts 163°
2026-04-24 04:57 20.28443 73.87218 32986 ft 454 kts 163°
2026-04-24 04:58 20.22453 73.89390 32985 ft 453 kts 163°
2026-04-24 04:58 20.16507 73.91573 32989 ft 454 kts 161°
2026-04-24 04:59 20.10974 73.94826 32990 ft 460 kts 145°
2026-04-24 04:59 20.06306 73.99538 32979 ft 464 kts 136°
2026-04-24 05:00 20.01827 74.04507 32975 ft 464 kts 137°
2026-04-24 05:00 19.97316 74.09359 32968 ft 464 kts 139°
2026-04-24 05:01 19.92740 74.14220 32974 ft 464 kts 139°
2026-04-24 05:01 19.88956 74.18233 32410 ft 459 kts 139°
2026-04-24 05:02 19.86686 74.20632 31551 ft 458 kts 138°
2026-04-24 05:02 19.84409 74.23024 30564 ft 459 kts 137°
2026-04-24 05:02 19.82168 74.25372 29695 ft 455 kts 137°
2026-04-24 05:02 19.79937 74.27725 28868 ft 448 kts 136°
2026-04-24 05:03 19.77735 74.30060 28220 ft 440 kts 136°
2026-04-24 05:03 19.75600 74.32335 27714 ft 439 kts 135°
2026-04-24 05:03 19.73351 74.34530 27206 ft 436 kts 144°
2026-04-24 05:03 19.70745 74.36137 26712 ft 433 kts 157°
2026-04-24 05:04 19.67856 74.37033 26225 ft 430 kts 171°
2026-04-24 05:04 19.64900 74.37166 25750 ft 430 kts 184°
2026-04-24 05:04 19.61968 74.36562 25278 ft 431 kts 197°
2026-04-24 05:04 19.59186 74.35365 24811 ft 431 kts 202°
2026-04-24 05:05 19.56437 74.34092 24355 ft 429 kts 202°
2026-04-24 05:05 19.53692 74.32853 23910 ft 427 kts 201°
2026-04-24 05:05 19.50953 74.31649 23459 ft 425 kts 200°
2026-04-24 05:05 19.48259 74.30485 22947 ft 422 kts 200°
2026-04-24 05:06 19.45537 74.29315 22424 ft 417 kts 200°
2026-04-24 05:06 19.42853 74.28160 21911 ft 412 kts 200°
2026-04-24 05:06 19.40229 74.27028 21420 ft 409 kts 200°
2026-04-24 05:06 19.37597 74.25889 20927 ft 405 kts 200°
2026-04-24 05:07 19.34994 74.24760 20445 ft 400 kts 200°
2026-04-24 05:07 19.32428 74.23645 19971 ft 396 kts 200°
2026-04-24 05:07 19.29881 74.22535 19497 ft 393 kts 200°
2026-04-24 05:07 19.27401 74.21455 19050 ft 389 kts 200°
2026-04-24 05:08 19.24903 74.20367 18592 ft 386 kts 200°
2026-04-24 05:08 19.22425 74.19286 18123 ft 382 kts 200°
2026-04-24 05:08 19.19957 74.18335 17617 ft 378 kts 193°
2026-04-24 05:08 19.17399 74.17745 17103 ft 374 kts 186°
2026-04-24 05:09 19.14832 74.17399 16597 ft 370 kts 185°
2026-04-24 05:09 19.12284 74.17063 16110 ft 367 kts 186°
2026-04-24 05:09 19.09755 74.16709 15620 ft 363 kts 186°
2026-04-24 05:09 19.07280 74.16340 15130 ft 353 kts 187°
2026-04-24 05:10 19.04901 74.15968 14663 ft 336 kts 187°
2026-04-24 05:10 19.02665 74.15615 14205 ft 321 kts 187°
2026-04-24 05:10 19.00482 74.15272 13743 ft 308 kts 187°
2026-04-24 05:10 18.98413 74.14947 13232 ft 299 kts 187°
2026-04-24 05:11 18.96363 74.14627 12735 ft 300 kts 187°
2026-04-24 05:11 18.94274 74.14302 12299 ft 304 kts 187°
2026-04-24 05:11 18.92179 74.13980 11845 ft 302 kts 187°
2026-04-24 05:11 18.90106 74.13666 11417 ft 298 kts 187°
2026-04-24 05:12 18.88049 74.13354 10991 ft 297 kts 186°
2026-04-24 05:12 18.86039 74.13048 10586 ft 295 kts 186°
2026-04-24 05:12 18.84009 74.12741 10157 ft 295 kts 186°
2026-04-24 05:12 18.81964 74.12428 9736 ft 295 kts 186°
2026-04-24 05:13 18.77901 74.11824 8836 ft 292 kts 185°
2026-04-24 05:13 18.75887 74.11523 8406 ft 294 kts 186°
2026-04-24 05:13 18.73878 74.11224 7987 ft 295 kts 185°
2026-04-24 05:14 18.71841 74.10924 7556 ft 295 kts 185°
2026-04-24 05:14 18.69799 74.10623 7130 ft 293 kts 185°
2026-04-24 05:14 18.67808 74.10329 6706 ft 292 kts 186°
2026-04-24 05:14 18.65792 74.10033 6321 ft 292 kts 186°
2026-04-24 05:15 18.63770 74.09733 5880 ft 294 kts 186°
2026-04-24 05:15 18.61742 74.09430 5437 ft 294 kts 186°
2026-04-24 05:15 18.59720 74.09052 4946 ft 297 kts 198°
2026-04-24 05:15 18.57963 74.07966 4414 ft 292 kts 225°
2026-04-24 05:16 18.56869 74.06223 3917 ft 283 kts 256°
2026-04-24 05:16 18.56849 74.04281 3711 ft 257 kts 289°
2026-04-24 05:16 18.57411 74.02577 3618 ft 241 kts 289°
2026-04-24 05:16 18.57718 74.00854 3296 ft 236 kts 277°
2026-04-24 05:17 18.57811 73.99157 2998 ft 226 kts 274°
2026-04-24 05:17 18.57876 73.97555 2735 ft 210 kts 275°
2026-04-24 05:17 18.57964 73.96116 2493 ft 183 kts 276°
2026-04-24 05:17 18.58056 73.94877 2268 ft 156 kts 276°
2026-04-24 05:18 18.58115 73.93737 2068 ft 158 kts 276°
2026-04-24 05:18 18.58194 73.92612 1938 ft 155 kts 277°
2026-04-24 05:18 18.58261 73.91441 2083 ft 178 kts 272°
2026-04-24 05:18 18.58302 73.89983 2615 ft 223 kts 272°
2026-04-24 05:19 18.58364 73.88159 3272 ft 268 kts 276°
2026-04-24 05:19 18.58521 73.86222 4431 ft 261 kts 277°
2026-04-24 05:19 18.58684 73.84452 4989 ft 223 kts 278°
2026-04-24 05:19 18.58575 73.82911 5100 ft 209 kts 248°
2026-04-24 05:20 18.57672 73.81702 5050 ft 216 kts 212°
2026-04-24 05:20 18.56278 73.81240 4780 ft 215 kts 175°
2026-04-24 05:20 18.54856 73.81725 4443 ft 215 kts 137°
2026-04-24 05:20 18.54007 73.82981 4111 ft 212 kts 103°
2026-04-24 05:21 18.53662 73.84472 3915 ft 208 kts 99°
2026-04-24 05:21 18.53373 73.85928 3888 ft 196 kts 99°
2026-04-24 05:21 18.53125 73.87311 3912 ft 196 kts 96°
2026-04-24 05:21 18.52936 73.88722 3897 ft 190 kts 95°
2026-04-24 05:22 18.52749 73.90100 3906 ft 196 kts 96°
2026-04-24 05:22 18.52559 73.91551 3923 ft 208 kts 96°
2026-04-24 05:22 18.52358 73.93069 3891 ft 211 kts 96°
2026-04-24 05:22 18.52163 73.94636 3916 ft 215 kts 96°
2026-04-24 05:23 18.51972 73.96179 3907 ft 212 kts 96°
2026-04-24 05:23 18.51755 73.97742 3900 ft 216 kts 96°
2026-04-24 05:23 18.51556 73.99313 3917 ft 216 kts 96°
2026-04-24 05:23 18.51354 74.00895 3885 ft 214 kts 96°
2026-04-24 05:24 18.51154 74.02434 3877 ft 219 kts 96°
2026-04-24 05:24 18.50944 74.04020 3901 ft 214 kts 96°
2026-04-24 05:24 18.50972 74.05575 3901 ft 207 kts 70°
2026-04-24 05:24 18.51752 74.06730 3908 ft 186 kts 33°
2026-04-24 05:25 18.52930 74.07134 3902 ft 182 kts 10°
2026-04-24 05:25 18.54210 74.07340 3867 ft 185 kts
2026-04-24 05:25 18.55464 74.07524 3898 ft 186 kts
2026-04-24 05:25 18.56749 74.07398 3883 ft 189 kts 332°
2026-04-24 05:26 18.57574 74.06300 3910 ft 200 kts 288°
2026-04-24 05:26 18.57586 74.04863 3869 ft 197 kts 267°
2026-04-24 05:26 18.57505 74.03463 3782 ft 189 kts 273°
2026-04-24 05:26 18.57562 74.02094 3509 ft 183 kts 281°
2026-04-24 05:27 18.57672 74.00790 3304 ft 176 kts 278°
2026-04-24 05:27 18.57748 73.99568 3064 ft 158 kts 279°
2026-04-24 05:27 18.57820 73.98443 2905 ft 163 kts 278°
2026-04-24 05:27 18.57895 73.97245 2699 ft 156 kts 277°
2026-04-24 05:28 18.57965 73.96129 2523 ft 166 kts 278°
2026-04-24 05:28 18.58069 73.94786 2405 ft 192 kts 277°
2026-04-24 05:28 18.58188 73.93364 2823 ft 195 kts 279°
2026-04-24 05:28 18.58350 73.91831 3331 ft 218 kts 279°
2026-04-24 05:29 18.58543 73.90185 3899 ft 238 kts 280°
2026-04-24 05:29 18.58760 73.88431 4520 ft 244 kts 281°
2026-04-24 05:29 18.58986 73.86640 5106 ft 250 kts 281°
2026-04-24 05:29 18.59243 73.84709 5553 ft 279 kts 281°
2026-04-24 05:30 18.59527 73.82650 5990 ft 286 kts 281°
2026-04-24 05:30 18.59822 73.80547 6392 ft 291 kts 281°
2026-04-24 05:30 18.60119 73.78441 6777 ft 289 kts 281°
2026-04-24 05:30 18.60421 73.76355 7166 ft 292 kts 281°
2026-04-24 05:31 18.60743 73.74203 7573 ft 296 kts 281°
2026-04-24 05:31 18.61074 73.72058 7973 ft 296 kts 281°
2026-04-24 05:31 18.61408 73.69930 8380 ft 301 kts 281°
2026-04-24 05:31 18.61969 73.67818 8796 ft 298 kts 296°
2026-04-24 05:32 18.62818 73.65796 9214 ft 304 kts 292°
2026-04-24 05:32 18.63537 73.63736 9620 ft 304 kts 290°
2026-04-24 05:32 18.64540 73.61749 10034 ft 307 kts 303°
2026-04-24 05:32 18.65713 73.59860 10425 ft 306 kts 303°
2026-04-24 05:33 18.66889 73.57972 10761 ft 309 kts 302°
2026-04-24 05:33 18.68056 73.56052 10871 ft 312 kts 302°
2026-04-24 05:33 18.69197 73.54171 10878 ft 310 kts 301°
2026-04-24 05:34 18.71580 73.50392 10879 ft 310 kts 308°
2026-04-24 05:34 18.72939 73.48666 10877 ft 309 kts 310°
2026-04-24 05:34 18.74345 73.46944 10870 ft 307 kts 310°
2026-04-24 05:34 18.75742 73.45231 10651 ft 312 kts 310°
2026-04-24 05:35 18.77158 73.43482 10293 ft 309 kts 309°
2026-04-24 05:35 18.78532 73.41763 9940 ft 303 kts 309°
2026-04-24 05:35 18.79884 73.40060 9598 ft 304 kts 309°
2026-04-24 05:35 18.81225 73.38363 9205 ft 302 kts 309°
2026-04-24 05:36 18.82562 73.36676 8843 ft 297 kts 310°
2026-04-24 05:36 18.83901 73.34998 8375 ft 297 kts 310°
2026-04-24 05:36 18.85213 73.33340 7880 ft 297 kts 310°
2026-04-24 05:36 18.86538 73.31665 7375 ft 294 kts 310°
2026-04-24 05:37 18.87852 73.30009 6887 ft 292 kts 310°
2026-04-24 05:37 18.89138 73.28394 6413 ft 290 kts 310°
2026-04-24 05:37 18.90447 73.26755 5906 ft 291 kts 310°
2026-04-24 05:37 18.91745 73.25122 5396 ft 288 kts 310°
2026-04-24 05:38 18.93017 73.23525 4908 ft 286 kts 310°
2026-04-24 05:38 18.94289 73.21927 4374 ft 285 kts 311°
2026-04-24 05:38 18.95571 73.20332 3846 ft 283 kts 311°
2026-04-24 05:38 18.96823 73.18749 3359 ft 279 kts 311°
2026-04-24 05:39 18.98055 73.17187 2974 ft 271 kts 311°
2026-04-24 05:39 18.99235 73.15692 2858 ft 260 kts 312°
2026-04-24 05:39 19.00410 73.14210 2850 ft 255 kts 312°
2026-04-24 05:39 19.01495 73.12846 2851 ft 233 kts 313°
2026-04-24 05:40 19.02553 73.11524 2855 ft 233 kts 313°
2026-04-24 05:40 19.03569 73.10253 2851 ft 222 kts 313°
2026-04-24 05:40 19.04522 73.09053 2852 ft 205 kts 313°
2026-04-24 05:40 19.05450 73.07885 2853 ft 208 kts 313°
2026-04-24 05:41 19.06378 73.06719 2851 ft 207 kts 313°
2026-04-24 05:41 19.07303 73.05555 2850 ft 206 kts 313°
2026-04-24 05:41 19.08225 73.04377 2851 ft 209 kts 309°
2026-04-24 05:41 19.08708 73.03476 2817 ft 216 kts 295°
2026-04-24 05:42 19.09023 73.01921 2586 ft 218 kts 278°
2026-04-24 05:42 19.09067 72.99788 2225 ft 216 kts 272°
2026-04-24 05:42 19.09046 72.98759 2038 ft 206 kts 272°
2026-04-24 05:42 19.09028 72.97290 1772 ft 194 kts 273°
2026-04-24 05:43 19.09010 72.95902 1531 ft 184 kts 272°
2026-04-24 05:43 19.08988 72.94597 1297 ft 168 kts 272°
2026-04-24 05:43 19.08971 72.93435 1085 ft 150 kts 272°
2026-04-24 05:43 19.08957 72.92344 926 ft 149 kts 272°
2026-04-24 05:44 19.08942 72.91280 731 ft 138 kts 272°
2026-04-24 05:44 19.08927 72.90251 573 ft 138 kts 272°
2026-04-24 05:44 19.08910 72.89253 353 ft 135 kts 271°
2026-04-24 05:44 19.08907 72.88262 142 ft 137 kts 271°
2026-04-24 05:45 19.08882 72.87256 37 ft 136 kts 271°
2026-04-24 05:45 19.08876 72.86367 32 ft 95 kts 268°
2026-04-24 05:45 19.08890 72.85958 29 ft 20 kts 292°
2026-04-24 05:45 19.08949 72.85833 30 ft 20 kts 302°
2026-04-24 05:46 19.09021 72.85695 30 ft 23 kts 270°
2026-04-24 05:46 19.09028 72.85608 30 ft 11 kts 276°
2026-04-24 05:46 19.09028 72.85506 30 ft 16 kts 271°
2026-04-24 05:46 19.09030 72.85394 29 ft 10 kts 276°
2026-04-24 05:47 19.09038 72.85382 29 ft 5 kts 300°
2026-04-24 05:47 19.09058 72.85381 29 ft 4 kts
2026-04-24 05:47 19.09098 72.85403 30 ft 9 kts 23°
2026-04-24 05:47 19.09160 72.85407 31 ft 8 kts 360°
2026-04-24 05:48 19.09164 72.85407 32 ft 0 kts 360°